CAPE
1621 1248 1249 1224 1241 1119 1022 1094 1189 1346 1523 1645 1580 1297 1197 1163 1012 933 857 850 919 847 667 498 410 311 191 89 72 99 55 161
2138 1754 1446 1361 1207 713 724 851 917 1020 1166 1152 925 842 923 909 886 884 792 773 713 640 529 472 440 363 279 163 88 91 150 298
2403 2286 2031 1874 1565 1123 554 691 774 760 856 760 437 886 534 327 343 822 708 664 593 495 450 406 420 373 334 255 102 426 443 356
2281 2484 2745 2569 1869 1861 1611 1424 1306 1275 1295 1276 1501 1665 1308 952 655 479 582 674 623 582 527 401 175 702 730 429 597 636 464 438
2175 2392 2962 2659 2588 2318 2109 2130 2097 2069 1871 2190 1814 1589 1473 668 1080 403 516 405 623 473 448 619 1047 936 1220 1152 1186 1109 1205 753
1762 1982 2684 2668 2164 2231 2369 1938 1958 2251 1916 2368 2288 1704 1567 1731 1181 1907 1300 1109 1136 1010 1365 1293 1359 1642 1864 1594 1738 1535 1348 1353
1802 1700 1934 1907 1882 1772 1831 1759 1819 2067 1884 1962 1616 1614 2112 1807 1855 1700 1700 1594 1521 1757 1929 1571 1412 1601 1534 1573 1537 1581 1584 1506
1759 1587 1291 1390 1722 1894 1687 1734 1688 1850 1581 1951 2063 2083 2243 1909 1842 1761 1738 1752 2085 1694 1732 1751 1687 1546 1703 1586 1303 1361 1401 1490
1987 1696 1388 1340 1640 1716 1697 1519 1465 1470 1974 2030 1927 2098 2306 1750 1956 1804 1608 1696 1815 1683 1468 1408 1281 797 681 775 618 579 151 256
2185 1615 1784 1733 1680 1650 1446 1595 1460 1402 2092 2069 1715 2034 1990 1891 1797 1409 1247 1156 988 507 55 0 0 0 0 0 0 0 0 0
2443 2016 1974 1889 2015 1790 1924 1969 2188 2054 1861 1650 1788 1695 1578 1502 902 185 1 0 0 0 0 0 0 0 0 0 0 0 0 0
2474 2262 2276 2499 2134 2260 2340 2301 1863 1515 1316 729 573 417 209 70 19 0 0 0 0 0 0 0 0 0 0 0 0 0 0 0
2408 2325 2577 2215 2119 2224 1843 1413 922 798 448 434 173 54 16 6 0 0 0 0 0 0 0 0 0 0 0 0 0 0 0 0
2315 2259 2137 1954 2048 1811 1398 802 391 213 120 113 25 1 0 0 0 0 0 0 0 0 0 0 0 0 0 0 0 0 0 0
2156 2153 1795 1737 1453 1326 771 474 438 363 47 100 0 0 0 0 0 0 0 0 0 0 0 0 0 0 0 0 0 0 0 0
2371 2102 1831 2032 1657 1097 766 595 404 155 30 34 0 0 0 0 0 0 0 0 0 0 0 0 0 0 0 0 0 0 0 0
2072 1993 1863 2132 1833 981 682 661 455 80 15 7 0 0 0 0 0 0 0 0 0 0 0 0 0 0 0 0 0 0 1 0
2044 1980 1961 1914 1153 802 498 487 266 29 28 9 0 0 0 0 0 0 0 0 0 0 0 0 0 0 0 0 0 0 0 12
1144 1457 1501 1125 546 591 601 477 91 76 31 0 0 0 0 0 0 0 0 0 0 0 0 0 0 0 1 0 0 3 8 14
399 740 826 215 607 674 767 383 101 111 38 0 0 0 0 0 0 0 0 0 0 0 0 0 0 5 4 6 7 6 20 14
CIN
-135 -187 -184 -192 -166 -190 -199 -176 -139 -107 -59 -26 -20 -42 -40 -36 -52 -52 -49 -47 -46 -67 -101 -149 -175 -206 -279 -404 -443 -433 -427 -179
-52 -82 -118 -134 -138 -227 -223 -189 -153 -107 -90 -100 -137 -136 -99 -87 -72 -59 -74 -71 -78 -101 -134 -144 -159 -191 -228 -305 -425 -462 -305 -127
-44 -23 -30 -23 -53 -123 -242 -201 -187 -176 -131 -143 -219 -64 -135 -228 -238 -98 -93 -90 -107 -143 -163 -177 -179 -218 -234 -288 -434 -145 -73 -84
-61 -27 -3 -0 -10 -18 -21 -30 -29 -27 -20 -31 -7 -0 -2 -23 -97 -177 -135 -101 -99 -108 -130 -195 -376 -79 -131 -117 -112 -49 -71 -68
-87 -43 -6 -4 -0 -4 -0 -0 -0 -0 -0 -4 -0 -0 -0 -38 -19 -131 -114 -169 -81 -112 -121 -88 -18 -5 -2 -1 -3 -9 -1 -13
-131 -74 -31 -5 -6 -6 -0 -4 -1 -0 -0 -1 -0 -0 -0 -0 -0 -1 -1 -2 -1 -0 -2 -2 -0 -0 -0 -0 -1 -1 -2 -2
-144 -151 -103 -71 -61 -40 -10 -10 -6 -0 -0 -0 -0 -0 -1 -1 -6 -1 -3 -5 -5 -3 -5 -6 -0 -0 -0 -0 -1 -0 -0 -0
-147 -153 -178 -145 -69 -37 -33 -10 -14 -0 -1 -0 -0 -0 -0 -0 -1 -0 -0 -0 -2 -0 -0 -0 -0 -0 -0 -0 -0 -0 -0 -0
-122 -150 -168 -141 -66 -58 -37 -23 -5 -8 -3 -0 -0 -0 -0 -0 -0 -1 -0 -0 -0 -0 -0 -0 -0 -1 -6 -12 -29 -36 -158 -102
-82 -128 -115 -92 -56 -52 -39 -15 -11 -6 -1 -0 -0 -0 -0 -0 -0 -0 -1 -0 -0 -33 -100 -0 -0 -0 -0 -0 -0 -0 -0 -0
-29 -73 -77 -69 -20 -26 -8 -2 -0 -0 -0 -0 -0 -0 -0 -0 -1 -104 -28 -0 -0 -0 -0 -0 -0 -0 -0 -0 -0 -0 -0 -0
-7 -33 -33 -11 -21 -3 -2 -0 -0 -0 -0 -17 -15 -17 -49 -120 -222 -0 -0 -0 -0 -0 -0 -0 -0 -0 -0 -0 -0 -0 -0 -0
-5 -22 -19 -29 -26 -7 -12 -21 -35 -30 -50 -34 -61 -112 -169 -196 -0 -0 -0 -0 -0 -0 -0 -0 -0 -0 -0 -0 -0 -0 -0 -0
-0 -11 -39 -57 -34 -19 -26 -63 -59 -85 -101 -76 -122 -63 -0 -0 -0 -0 -0 -0 -0 -0 -0 -0 -0 -0 -0 -0 -0 -0 -0 -0
-2 -7 -55 -61 -65 -36 -81 -96 -71 -63 -121 -69 -0 -0 -0 -0 -0 -0 -0 -0 -0 -0 -0 -0 -0 -0 -0 -0 -0 -0 -0 -0
-3 -12 -39 -10 -34 -69 -97 -100 -76 -80 -98 -74 -0 -0 -0 -0 -0 -0 -0 -0 -0 -0 -0 -0 -0 -0 -0 -0 -0 -0 -0 -0
-17 -12 -17 -0 -14 -71 -89 -55 -41 -81 -80 -84 -0 -0 -0 -0 -0 -0 -0 -0 -0 -0 -0 -0 -0 -0 -0 -0 -0 -0 -0 -0
-6 -4 -8 -0 -40 -61 -86 -46 -60 -86 -76 -86 -0 -0 -0 -0 -0 -0 -0 -0 -0 -0 -0 -0 -0 -0 -0 -0 -0 -0 -0 -0
-70 -19 -18 -28 -71 -58 -32 -27 -79 -53 -54 -0 -0 -0 -0 -0 -0 -0 -0 -0 -0 -0 -0 -0 -0 -0 -0 -0 -0 -0 -0 -0
-160 -81 -71 -174 -62 -28 -4 -32 -44 -35 -37 -0 -0 -0 -0 -0 -0 -0 -0 -0 -0 -0 -0 -0 -0 -0 -0 -0 -0 -0 -0 -0
Wind_Speed
23 23 22 20 19 18 17 16 12 9 9 9 8 6 6 4 3 4 5 7 8 10 11 12 13 13 11 nan nan nan nan 5
24 21 21 22 21 17 19 17 18 14 12 11 11 9 7 7 6 9 9 9 9 9 9 9 10 11 13 12 nan nan 11 9
25 23 21 20 22 20 19 20 20 20 16 12 10 7 9 12 16 16 13 11 11 11 11 9 9 12 16 19 17 14 14 15
25 23 21 20 19 25 19 21 19 15 15 17 8 9 13 16 20 18 16 14 12 12 12 12 10 7 18 16 15 17 16 16
28 23 20 17 15 23 18 20 18 15 17 21 13 19 17 15 20 19 19 18 15 17 18 15 15 18 21 19 16 17 18 21
28 20 20 18 20 21 22 22 19 17 19 21 22 19 21 13 19 24 20 22 19 19 23 22 21 22 22 19 21 24 24 24
28 25 23 19 24 22 19 22 24 17 22 23 21 20 22 22 24 23 24 21 24 26 29 25 24 23 23 23 23 24 26 29
34 27 23 24 20 23 18 17 24 20 22 25 21 24 23 24 27 24 22 23 27 26 25 26 27 29 27 25 26 29 30 32
35 33 27 25 21 24 21 22 20 21 25 29 26 24 26 26 28 28 29 29 29 28 28 28 30 32 33 35 36 38 36 36
38 33 33 29 25 26 24 26 24 26 28 27 27 28 30 32 31 32 31 32 32 32 nan nan nan nan nan nan nan nan nan nan
38 36 36 33 28 29 28 33 31 32 32 33 34 34 33 33 34 36 nan nan nan nan nan nan nan nan nan nan nan nan nan nan
37 36 36 33 34 32 34 37 38 38 36 36 37 37 37 nan nan nan nan nan nan nan nan nan nan nan nan nan nan nan nan nan
34 32 35 34 34 35 35 36 38 40 39 38 39 nan nan nan nan nan nan nan nan nan nan nan nan nan nan nan nan nan nan nan
33 34 40 34 33 34 35 37 38 40 40 40 nan nan nan nan nan nan nan nan nan nan nan nan nan nan nan nan nan nan nan nan
30 35 39 37 34 37 37 39 40 38 nan 40 nan nan nan nan nan nan nan nan nan nan nan nan nan nan nan nan nan nan nan nan
31 35 38 35 35 39 40 40 42 39 nan nan nan nan nan nan nan nan nan nan nan nan nan nan nan nan nan nan nan nan nan nan
32 31 36 38 36 37 38 41 42 nan nan nan nan nan nan nan nan nan nan nan nan nan nan nan nan nan nan nan nan nan nan nan
37 32 34 39 35 35 38 42 45 nan nan nan nan nan nan nan nan nan nan nan nan nan nan nan nan nan nan nan nan nan nan nan
43 32 37 37 35 37 39 42 nan nan nan nan nan nan nan nan nan nan nan nan nan nan nan nan nan nan nan nan nan nan nan nan
42 38 40 41 41 44 46 47 46 47 nan nan nan nan nan nan nan nan nan nan nan nan nan nan nan nan nan nan nan nan nan nan
Wind_Direction
316 317 312 304 310 309 305 307 304 296 283 273 261 253 249 253 269 291 297 301 311 320 323 329 335 338 339 nan nan nan nan 7
316 313 313 312 313 298 299 301 294 284 272 270 276 284 293 308 313 313 304 304 307 310 313 323 328 330 327 327 nan nan 354 318
319 314 308 307 309 303 295 293 293 288 279 273 287 311 306 308 282 298 303 304 306 306 305 310 326 342 337 337 332 327 305 299
317 321 313 304 302 298 308 302 302 297 291 289 278 278 272 256 282 294 301 307 305 300 303 313 329 316 313 320 313 284 292 296
327 325 317 304 294 285 287 283 287 294 303 291 284 270 274 282 290 294 299 307 298 296 297 301 308 274 276 277 282 289 287 290
321 323 306 309 280 275 281 284 285 289 296 288 276 266 275 276 281 272 275 283 272 278 277 283 284 292 288 291 298 298 296 287
317 316 308 299 286 292 292 292 290 296 290 294 294 289 274 273 269 271 275 278 279 266 266 271 281 292 301 297 303 303 303 299
312 314 306 301 300 298 289 289 291 294 289 286 291 280 276 270 269 279 278 272 265 274 279 286 294 298 302 301 301 303 304 298
302 310 308 303 298 287 292 290 292 287 276 280 286 280 280 276 274 270 272 277 284 284 285 291 298 304 308 312 311 313 309 305
296 300 306 303 299 292 287 284 284 284 275 274 278 276 278 275 277 277 280 287 288 287 nan nan nan nan nan nan nan nan nan nan
295 302 303 301 298 285 281 280 277 279 278 275 276 278 280 281 281 278 nan nan nan nan nan nan nan nan nan nan nan nan nan nan
291 293 294 289 278 280 277 277 278 279 277 272 277 275 277 nan nan nan nan nan nan nan nan nan nan nan nan nan nan nan nan nan
297 296 286 278 277 279 281 284 282 282 282 286 283 nan nan nan nan nan nan nan nan nan nan nan nan nan nan nan nan nan nan nan
296 296 282 281 275 279 280 281 282 281 283 287 nan nan nan nan nan nan nan nan nan nan nan nan nan nan nan nan nan nan nan nan
293 289 282 279 283 279 280 276 280 285 nan 282 nan nan nan nan nan nan nan nan nan nan nan nan nan nan nan nan nan nan nan nan
279 277 284 284 292 284 287 286 288 289 nan nan nan nan nan nan nan nan nan nan nan nan nan nan nan nan nan nan nan nan nan nan
277 274 280 281 288 284 283 285 287 nan nan nan nan nan nan nan nan nan nan nan nan nan nan nan nan nan nan nan nan nan nan nan
272 274 279 281 282 284 286 286 285 nan nan nan nan nan nan nan nan nan nan nan nan nan nan nan nan nan nan nan nan nan nan nan
267 273 273 277 278 278 281 281 nan nan nan nan nan nan nan nan nan nan nan nan nan nan nan nan nan nan nan nan nan nan nan nan
271 269 272 272 268 266 270 276 274 280 nan nan nan nan nan nan nan nan nan nan nan nan nan nan nan nan nan nan nan nan nan nan